Вернуться в каталог

ONEWEB-0222

АктивенСвязьPO
NORAD 48775·PAYLOAD·🇬🇧 United Kingdom

Запущен May 28, 2021 с Vostochny Cosmodrome

Loading…

Ближайшие Пролёты (ближайшие 24 часа)

TLE

СвежийSource: CelesTrak SupGP

Эпоха: Sep 14, 2026, 19:25 UTC

1 48775C 21045J   26257.80918238  .00003661  00000+0  97372-2 0  2576
2 48775  87.8988 241.3203 0002001  79.2433 343.5690 13.15545121    16

Отслеживайте ONEWEB-0222 в реальном времени с AllMySat

Download on the App Store